Terminal Aerodrome Forecast
Issued by NWS Midland/Odessa, TX

Home | Current Version | Previous Version | Text Only | Print | Product List | Glossary On
Versions: 1 2 3 4 5 6 7 8 9 10 11 12 13 14 15 16 17 18 19 20 21 22 23 24 25 26 27 28 29 30
588
FTUS44 KMAF 261127
TAFMAF
TAF
KMAF 261127Z 2612/2712 06012KT P6SM -RA BKN060
      TEMPO 2612/2616 5SM RA BKN020
     FM261600 08012KT P6SM BKN050 BKN120=

USA.gov is the U.S. government's official web portal to all federal, state and local government web resources and services.